Regional Weather Roundup
Issued by NWS Boston, MA

Home | Current Version | Previous Version | Text Only | Print | Product List | Glossary On
Versions: 1 2 3 4 5 6 7 8 9 10 11 12 13 14 15 16 17 18 19 20 21 22 23 24 25 26 27 28 29 30 31 32 33 34 35 36 37 38 39 40 41 42 43 44 45 46 47 48 49 50
060
ASUS41 KBOX 251210
RWRBOX

REGIONAL WEATHER ROUNDUP
NATIONAL WEATHER SERVICE TAUNTON MA
700 AM EST SAT FEB 25 2017

NOTE:  "FAIR" INDICATES FEW OR NO CLOUDS BELOW 12,000 FEET WITH NO
SIGNIFICANT WEATHER AND/OR OBSTRUCTIONS TO VISIBILITY.

MAZALL-251300-
EASTERN MASSACHUSETTS

CITY           SKY/WX    TMP DP  RH WIND       PRES   REMARKS
BOSTON         PTCLDY    51  51 100 S8        29.85R
6HR MIN TEMP:  50; 6HR MAX TEMP:  56;

BEVERLY        FOG       49  49 100 SE8       29.84S VSB<1/4
LAWRENCE       PTCLDY    57  55  93 SW5       29.84S
BEDFORD        PTCLDY    55  52  89 S8        29.82S
BLUE HILL        N/A     52  52 100 S13       29.84R
NORWOOD        CLOUDY    55  54  96 S7        29.85R
MARSHFIELD     FOG       52  52 100 S6        29.86S VSB<1/4
PLYMOUTH       FOG       50  49  96 S6        29.87S VSB 1/4
TAUNTON        CLOUDY    53  51  93 VRB5      29.85S FOG
NEW BEDFORD    FOG       50  49  96 SE5       29.86S VSB<1/4
$$

MAZALL-251300-
CAPE COD AND THE ISLANDS

CITY           SKY/WX    TMP DP  RH WIND       PRES   REMARKS
FALMOUTH         N/A    N/A N/A N/A MISG      29.89
HYANNIS        PTCLDY    48  48 100 S3        29.87S
CHATHAM        CLOUDY    49  49 100 S6        29.90F
PROVINCETOWN   PTCLDY    48  48 100 S9        29.88F
NANTUCKET      CLEAR     47  45  93 SE9       29.89F
MARTHAS VNYRD  PTCLDY    50  49  96 S7        29.88R
$$

MAZALL-251300-
CENTRAL AND WESTERN MASSACHUSETTS

CITY           SKY/WX    TMP DP  RH WIND       PRES   REMARKS
WORCESTER      FOG       54  53  97 S12       29.82S VSB 1/4
6HR MIN TEMP:  53; 6HR MAX TEMP:  56; 6HR PCP: TRACE;

FITCHBURG      CLOUDY    58  55  90 SE6       29.81S
ORANGE         CLOUDY    56  56 100 S9        29.79S
SPRINGFIELD    CLOUDY    58  56  93 S14       29.78S
WESTFIELD      CLOUDY    56  56 100 S7        29.78R FOG
NORTH ADAMS    CLOUDY    57  51  80 CALM      29.73F
PITTSFIELD     MOCLDY    57  52  83 S14G22    29.73S
$$

RIZALL-251300-
RHODE ISLAND

CITY           SKY/WX    TMP DP  RH WIND       PRES   REMARKS
PROVIDENCE     FOG       48  47  96 CALM      29.86R VSB<1/4
6HR MIN TEMP:  47; 6HR MAX TEMP:  53;

NEWPORT        FOG       49  49 100 SE8       29.85S VSB<1/4
SMITHFIELD     FOG       50  49  96 SE6       29.85S VSB 1/4
WESTERLY       FOG       49  47  93 CALM      29.86R VSB<1/4
$$

CTZALL-251300-
CONNECTICUT

CITY           SKY/WX    TMP DP  RH WIND       PRES   REMARKS
BRADLEY INTL   CLOUDY    57  55  93 S10       29.79S
6HR MIN TEMP:  56; 6HR MAX TEMP:  57; 6HR PCP: TRACE;

HARTFORD       CLOUDY    55  55 100 S8        29.80S
BRIDGEPORT     FOG       47  45  93 E3        29.81S VSB<1/4
DANBURY        CLOUDY    55  54  96 S7        29.79F
GROTON         FOG       48  48 100 E8        29.84S VSB 3/4
NEW HAVEN      FOG       49  49 100 SE9       29.81F VSB 1/4
CHESTER        FOG       52  52 100 SE3       29.82F VSB<1/4
MERIDEN        FOG       55  53  93 S7        29.80F VSB 1/4
WILLIMANTIC    CLOUDY    57  56  96 S6        29.83S
OXFORD         FOG       54  52  94 S7        29.81S VSB 1/4
$$

MEZ002-015-021-024-NHZ003-005-008-011-012-014-VTZ005-008-251300-
NORTHERN NEW ENGLAND

CITY           SKY/WX    TMP DP  RH WIND       PRES   REMARKS
PORTLAND ME    FOG       45  44  97 S7        29.84R VSB<1/4
6HR MIN TEMP:  35; 6HR MAX TEMP:  46;

BANGOR ME      FOG       35  35 100 N3        29.88S VSB 1/4
CONCORD NH     CLOUDY    54  53  97 S7        29.80S
MANCHESTER NH  MOCLDY    58  54  86 S12       29.79F
NASHUA NH      CLOUDY    57  56  96 SE7       29.81F
PORTSMOUTH NH  FOG       49  49  99 SE7       29.82S VSB 1/16
JAFFREY NH     CLOUDY    53  53 100 S3        29.80S FOG
KEENE NH       CLOUDY    57  54  89 S7        29.78S
BURLINGTON VT  CLOUDY    54  51  90 S9        29.63F
MT. WASHINGTON LGT RAIN  39  39 100 SW51G63     N/A  VSB 1/16WCI  24
$$

NYZ052-076-251300-
EASTERN NEW YORK

CITY           SKY/WX    TMP DP  RH WIND       PRES   REMARKS
ALBANY         MOCLDY    60  53  77 S15G23    29.68F
6HR MIN TEMP:  59; 6HR MAX TEMP:  61;

NEW YORK CITY  FOG       51  50  96 S6        29.78F VSB 1/4
6HR MIN TEMP:  51; 6HR MAX TEMP:  54;

$$

ANZALL-251300-
MARINE OBSERVATIONS

STATION/POSITION TIME  TEMP    WIND        PRES    VSBY  WAVE
                       AIR SEA DIR/SP/G                  HT/PER
                 (UTC) (F)     (DEG/KT/KT) (MB)    (MI)  (FT/S)
BOSTON BUOY      1050   47 43  140/ 14/ 16 1009.9          2/ 9
BUZZARDS BAY     1100   48     160/ 19/ 20 1010.9F
NANTUCKET SOUND  1050   45 40  140/  6/  8 1012.2          1
MASS BAY-STELLWA NOT AVBL
ISLE OF SHOALS   1100   51     170/ 20/ 20 1009.9F
S OF BLOCK IS    1155      42                N/A           3/11
$$

......................KEY.........................
  SKY/WX - SKY CONDITION/PRESENT WEATHER
  TMP    - TEMPERATURE IN FAHRENHEIT
  DWPT   - DEWPOINT IN FAHRENHEIT
  RH     - RELATIVE HUMIDITY IN PERCENT
  WIND   - DIRECTION AND SPEED IN MPH
  PRES   - MEAN SEA LEVEL PRESSURE IN INCHES OF HG
  WCI    - WIND CHILL INDEX
  VSB    - VISIBILITY IN MILES
  HX     - HEAT INDEX
  TC     - TEMPERATURE IN CELSIUS
  VRB    - VARIABLE WIND DIRECTION
  N/A    - NOT AVAILABLE




USA.gov is the U.S. government's official web portal to all federal, state and local government web resources and services.